Date String (YYYY-MM-DD hh:mm:ss) UTC,Instrument flags,Ambient pressure (hPa),Sample flow (lpm),Bypass flow (lpm),Sample temperature (°C),Ambient temperature (°C),ASC tube jacket temperature (°C),LED temperature (°C),Box temperature (°C),Sample RH (%),Span deviation,Mass concentration (μg/m³),Mass concentration (μg/m³),Mass concentration (μg/m³)
DateTimeUTC,F1_M11,P_M11,Q1_M11,Q2_M11,T1_M11,T2_M11,T3_M11,T4_M11,T5_M11,U1_M11,ZSPAN_M11,X2_M11,X0_M11,X1_M11
2023-03-10 08:00:00,,0824.1,5.01,0.00,22.4,21.3,00.0,31.0,24.1,15.7,-000.8,0008.94,0012.85,0008.65
2023-03-10 08:01:00,,0824.1,5.01,0.00,22.3,21.0,00.0,31.0,24.0,15.7,-000.7,0008.97,0013.42,0008.67
2023-03-10 08:02:00,,0824.1,5.00,0.00,22.3,20.7,00.0,31.0,23.9,15.7,-000.8,0008.98,0013.45,0008.67
2023-03-10 08:03:00,,0824.1,5.00,0.00,22.3,20.5,00.0,31.0,23.9,15.7,-000.6,0008.97,0013.40,0008.68
2023-03-10 08:04:00,,0824.1,5.00,0.00,22.2,20.3,00.0,31.0,23.8,15.7,-000.7,0008.94,0013.31,0008.68
2023-03-10 08:05:00,,0824.1,5.00,0.00,22.2,20.2,00.0,31.0,23.8,15.7,-000.9,0008.95,0013.29,0008.68
2023-03-10 08:06:00,,0824.1,5.00,0.00,22.1,20.1,00.0,31.0,23.7,15.7,-001.0,0008.96,0013.06,0008.67
2023-03-10 08:07:00,,0824.1,5.00,0.00,22.1,20.0,00.0,31.0,23.7,15.7,-000.8,0008.99,0012.97,0008.70
2023-03-10 08:08:00,,0824.1,5.00,0.00,22.0,20.0,00.0,30.9,23.6,15.7,-000.8,0009.05,0013.23,0008.73
2023-03-10 08:09:00,,0824.0,5.02,0.00,22.1,21.0,00.0,30.9,23.8,15.7,-000.8,0009.11,0013.41,0008.77
2023-03-10 08:10:00,,0824.1,4.96,0.00,22.2,22.2,00.0,30.9,24.1,15.6,-000.5,0009.12,0013.37,0008.78
2023-03-10 08:11:00,,0824.1,5.02,0.00,22.3,22.7,00.0,30.9,24.3,15.6,-000.5,0009.13,0013.21,0008.79
2023-03-10 08:12:00,,0824.2,4.96,0.00,22.3,22.3,00.0,31.0,24.2,15.5,-000.6,0009.09,0012.48,0008.78
2023-03-10 08:13:00,,0824.2,5.01,0.00,22.3,21.8,00.0,31.0,24.1,15.5,-000.9,0009.07,0012.47,0008.77
2023-03-10 08:14:00,,0824.1,5.00,0.00,22.3,21.3,00.0,31.0,24.0,15.5,-001.0,0009.08,0012.48,0008.77
2023-03-10 08:15:00,,0824.1,5.00,0.00,22.3,21.0,00.0,31.0,23.9,15.5,-000.8,0009.11,0012.55,0008.78
2023-03-10 08:16:00,,0824.1,5.01,0.00,22.3,20.7,00.0,31.0,23.9,15.5,-000.6,0009.10,0012.46,0008.79
2023-03-10 08:17:00,,0824.1,5.01,0.00,22.2,20.5,00.0,31.0,23.8,15.5,-000.5,0009.08,0012.23,0008.80
2023-03-10 08:18:00,,0824.1,5.00,0.00,22.2,20.4,00.0,31.0,23.8,15.5,-000.7,0009.07,0012.28,0008.79
2023-03-10 08:19:00,,0824.1,5.00,0.00,22.1,20.3,00.0,30.9,23.8,15.6,-000.9,0009.07,0012.20,0008.78
2023-03-10 08:20:00,,0824.1,5.00,0.00,22.1,20.2,00.0,30.9,23.7,15.6,-000.9,0009.03,0012.03,0008.76
2023-03-10 08:21:00,,0824.1,4.99,0.00,22.1,20.1,00.0,30.9,23.7,15.6,-001.1,0009.02,0012.11,0008.77
2023-03-10 08:22:00,,0824.0,5.00,0.00,22.1,20.0,00.0,30.9,23.7,15.6,-001.1,0009.02,0012.23,0008.77
2023-03-10 08:23:00,,0824.0,4.99,0.00,22.0,20.0,00.0,30.9,23.6,15.6,-001.1,0009.01,0012.19,0008.76
2023-03-10 08:24:00,,0824.1,5.01,0.00,22.1,21.1,00.0,30.8,23.8,15.5,-001.0,0008.98,0012.10,0008.75
2023-03-10 08:25:00,,0824.0,4.96,0.00,22.2,22.3,00.0,30.9,24.1,15.4,-000.8,0008.94,0012.02,0008.72
2023-03-10 08:26:00,,0824.0,4.99,0.00,22.3,22.7,00.0,30.9,24.2,15.3,-000.8,0008.92,0011.97,0008.71
2023-03-10 08:27:00,,0823.9,4.98,0.00,22.3,22.2,00.0,30.9,24.2,15.2,-000.9,0008.91,0011.95,0008.71
2023-03-10 08:28:00,,0824.0,4.99,0.00,22.3,21.8,00.0,30.9,24.1,15.2,-000.9,0008.91,0011.96,0008.69
2023-03-10 08:29:00,,0824.0,5.01,0.00,22.3,21.4,00.0,31.0,24.0,15.2,-000.9,0008.88,0011.91,0008.68
2023-03-10 08:30:00,,0824.0,5.01,0.00,22.3,21.0,00.0,31.0,23.9,15.2,-000.6,0008.86,0011.84,0008.66
2023-03-10 08:31:00,,0823.9,5.00,0.00,22.2,20.8,00.0,31.0,23.9,15.2,-000.3,0008.83,0011.76,0008.63
2023-03-10 08:32:00,,0823.8,5.01,0.00,22.2,20.6,00.0,31.0,23.8,15.3,-000.3,0008.80,0011.61,0008.60
2023-03-10 08:33:00,,0823.8,4.98,0.00,22.2,20.5,00.0,30.9,23.8,15.3,-000.6,0008.80,0011.51,0008.59
2023-03-10 08:34:00,,0823.8,5.00,0.00,22.2,20.4,00.0,30.9,23.7,15.3,-000.6,0008.81,0011.55,0008.59
2023-03-10 08:35:00,,0823.8,5.00,0.00,22.1,20.2,00.0,30.9,23.7,15.4,-000.7,0008.82,0011.64,0008.58
2023-03-10 08:36:00,,0823.8,5.00,0.00,22.1,20.1,00.0,30.9,23.6,15.4,-000.8,0008.83,0011.67,0008.58
2023-03-10 08:37:00,,0823.8,5.00,0.00,22.1,20.1,00.0,30.9,23.6,15.4,-001.0,0008.80,0012.05,0008.56
2023-03-10 08:38:00,,0823.8,5.01,0.00,22.1,20.7,00.0,30.8,23.8,15.5,-001.2,0008.77,0012.20,0008.53
2023-03-10 08:39:00,,0823.8,5.00,0.00,22.2,21.9,00.0,30.8,24.0,15.4,-001.0,0008.77,0012.16,0008.54
2023-03-10 08:40:00,,0823.8,4.99,0.00,22.3,22.7,00.0,30.9,24.2,15.3,-001.0,0008.80,0012.19,0008.56
2023-03-10 08:41:00,,0823.8,4.97,0.00,22.3,22.4,00.0,30.9,24.2,15.3,-001.0,0008.84,0012.32,0008.59
2023-03-10 08:42:00,,0823.7,4.99,0.00,22.3,21.9,00.0,30.9,24.1,15.3,-001.2,0008.89,0012.43,0008.62
2023-03-10 08:43:00,,0823.7,5.00,0.00,22.3,21.5,00.0,31.0,24.0,15.3,-000.9,0008.93,0012.49,0008.64
2023-03-10 08:44:00,,0823.7,5.01,0.00,22.3,21.1,00.0,31.0,23.9,15.3,-000.7,0008.96,0012.52,0008.67
2023-03-10 08:45:00,,0823.7,5.00,0.00,22.2,20.8,00.0,31.0,23.9,15.4,-000.3,0009.00,0012.66,0008.69
2023-03-10 08:46:00,,0823.7,5.00,0.00,22.2,20.6,00.0,31.0,23.8,15.4,-000.3,0009.03,0012.67,0008.74
2023-03-10 08:47:00,,0823.7,5.00,0.00,22.2,20.5,00.0,30.9,23.8,15.4,-000.3,0009.06,0012.79,0008.77
2023-03-10 08:48:00,,0823.7,5.00,0.00,22.2,20.4,00.0,30.9,23.8,15.4,-000.1,0009.11,0012.48,0008.81
2023-03-10 08:49:00,,0823.7,5.00,0.00,22.1,20.3,00.0,30.9,23.7,15.4,0000.2,0009.16,0012.32,0008.85
2023-03-10 08:50:00,,0823.7,5.00,0.00,22.1,20.2,00.0,30.9,23.7,15.4,0000.3,0009.20,0012.40,0008.87
2023-03-10 08:51:00,,0823.7,5.00,0.00,22.1,20.1,00.0,30.9,23.6,15.4,0000.6,0009.21,0012.45,0008.87
2023-03-10 08:52:00,,0823.7,5.00,0.00,22.0,20.3,00.0,30.9,23.6,15.5,0000.5,0009.18,0012.39,0008.87
2023-03-10 08:53:00,,0823.7,5.02,0.00,22.1,21.5,00.0,30.8,23.9,15.4,0000.1,0009.18,0012.37,0008.86
2023-03-10 08:54:00,,0823.7,5.00,0.00,22.2,22.6,00.0,30.9,24.2,15.3,-000.2,0009.14,0012.31,0008.83
2023-03-10 08:55:00,,0823.7,4.99,0.00,22.4,22.7,00.0,30.9,24.3,15.2,-000.4,0009.11,0012.37,0008.81
2023-03-10 08:56:00,,0823.6,4.97,0.00,22.4,22.2,00.0,30.9,24.2,15.2,-000.7,0009.09,0012.29,0008.81
2023-03-10 08:57:00,,0823.6,5.00,0.00,22.4,21.8,00.0,31.0,24.1,15.3,-000.5,0009.08,0012.25,0008.80
2023-03-10 08:58:00,,0823.7,5.00,0.00,22.3,21.4,00.0,31.0,24.1,15.3,-000.4,0009.06,0012.10,0008.79
2023-03-10 08:59:00,,0823.6,5.00,0.00,22.3,21.2,00.0,31.0,24.0,15.3,-000.7,0009.05,0012.07,0008.77
